TimeEDT,TemperatureF,Dew PointF,Humidity,Sea Level PressureIn,VisibilityMPH,Wind Direction,Wind SpeedMPH,Gust SpeedMPH,PrecipitationIn,Events,Conditions,WindDirDegrees,DateUTC
12:54 AM,63.0,55.0,75,30.26,10.0,ENE,5.8,-,N/A,,Clear,70,2013-08-18 04:54:00
1:54 AM,62.1,55.0,78,30.25,10.0,ESE,3.5,-,N/A,,Clear,120,2013-08-18 05:54:00
2:54 AM,62.1,55.0,78,30.25,10.0,Calm,Calm,-,N/A,,Clear,0,2013-08-18 06:54:00
3:54 AM,61.0,55.0,81,30.24,10.0,East,4.6,-,N/A,,Clear,100,2013-08-18 07:54:00
4:54 AM,61.0,55.0,81,30.24,10.0,ESE,4.6,-,N/A,,Clear,110,2013-08-18 08:54:00
5:54 AM,61.0,55.0,81,30.25,10.0,ESE,3.5,-,N/A,,Clear,110,2013-08-18 09:54:00
6:54 AM,61.0,55.0,81,30.26,10.0,East,3.5,-,N/A,,Clear,80,2013-08-18 10:54:00
7:54 AM,63.0,55.0,75,30.27,10.0,Calm,Calm,-,N/A,,Clear,0,2013-08-18 11:54:00
8:54 AM,64.0,55.9,75,30.26,10.0,Calm,Calm,-,N/A,,Clear,0,2013-08-18 12:54:00
9:54 AM,66.0,57.0,73,30.26,10.0,ENE,3.5,-,N/A,,Clear,60,2013-08-18 13:54:00
10:54 AM,71.1,57.9,63,30.27,10.0,Calm,Calm,-,N/A,,Clear,0,2013-08-18 14:54:00
11:54 AM,72.0,57.0,59,30.26,10.0,Calm,Calm,-,N/A,,Clear,0,2013-08-18 15:54:00
12:54 PM,72.0,57.9,61,30.24,10.0,WNW,3.5,-,N/A,,Clear,300,2013-08-18 16:54:00
1:54 PM,73.0,57.9,59,30.22,10.0,Calm,Calm,-,N/A,,Clear,0,2013-08-18 17:54:00
2:54 PM,73.0,57.0,57,30.20,10.0,Calm,Calm,-,N/A,,Mostly Cloudy,0,2013-08-18 18:54:00
3:54 PM,73.0,55.9,55,30.18,10.0,NW,5.8,-,N/A,,Overcast,310,2013-08-18 19:54:00
4:54 PM,73.0,55.9,55,30.17,10.0,Calm,Calm,-,N/A,,Clear,0,2013-08-18 20:54:00
5:54 PM,73.0,55.9,55,30.17,10.0,WNW,3.5,-,N/A,,Scattered Clouds,300,2013-08-18 21:54:00
6:54 PM,72.0,57.0,59,30.16,10.0,West,5.8,-,N/A,,Scattered Clouds,260,2013-08-18 22:54:00
7:54 PM,70.0,57.0,63,30.16,10.0,SW,4.6,-,N/A,,Partly Cloudy,220,2013-08-18 23:54:00
8:54 PM,66.9,57.9,73,30.16,10.0,Calm,Calm,-,N/A,,Clear,0,2013-08-19 00:54:00
9:54 PM,64.9,57.9,78,30.16,10.0,Calm,Calm,-,N/A,,Clear,0,2013-08-19 01:54:00
10:54 PM,64.9,57.9,78,30.16,10.0,Calm,Calm,-,N/A,,Clear,0,2013-08-19 02:54:00
11:54 PM,64.0,57.9,80,30.15,10.0,SSW,3.5,-,N/A,,Clear,210,2013-08-19 03:54:00